Total_Precipitation_Accumulation
0.03 0.04 0.02 0.02 0.02 0.05 0.10 0.12 0.08 0.04 0.04 0.03 0.03 0.02 0.02 0.04 0.04 0.02 0.03 0.03 0.04 0.08 0.11 0.11 0.13 0.09 0.06 0.05 0.06 0.07 0.06 0.05 0.05 0.03 0.03 0.04 0.05 0.07 0.11 0.12 0.12 0.14 0.11
0.12 0.12 0.08 0.07 0.05 0.09 0.15 0.19 0.17 0.13 0.07 0.07 0.06 0.06 0.05 0.07 0.05 0.05 0.07 0.05 0.03 0.03 0.03 0.06 0.09 0.10 0.10 0.09 0.06 0.05 0.04 0.05 0.05 0.03 0.02 0.01 0.02 0.03 0.05 0.07 0.07 0.09 0.07
0.30 0.30 0.26 0.18 0.16 0.24 0.26 0.21 0.19 0.22 0.17 0.19 0.16 0.22 0.20 0.15 0.09 0.06 0.08 0.07 0.05 0.04 0.05 0.06 0.11 0.13 0.16 0.18 0.14 0.11 0.09 0.07 0.04 0.02 0.02 0.01 0.01 0.01 0.01 0.02 0.03 0.04 0.05
0.46 0.51 0.38 0.24 0.31 0.45 0.41 0.30 0.31 0.33 0.30 0.32 0.31 0.31 0.22 0.14 0.08 0.04 0.04 0.03 0.03 0.02 0.03 0.11 0.15 0.17 0.25 0.25 0.24 0.25 0.22 0.17 0.09 0.03 0.02 0.01 0.01 0.01 0.01 0.01 0.02 0.05 0.05
0.43 0.45 0.24 0.16 0.33 0.42 0.31 0.31 0.35 0.39 0.39 0.37 0.35 0.24 0.15 0.08 0.05 0.05 0.04 0.02 0.02 0.03 0.04 0.11 0.13 0.19 0.29 0.33 0.32 0.33 0.33 0.29 0.22 0.10 0.05 0.02 0.02 0.01 0.01 0.01 0.03 0.06 0.06
0.24 0.32 0.19 0.17 0.41 0.46 0.39 0.47 0.48 0.43 0.34 0.31 0.30 0.11 0.06 0.05 0.04 0.05 0.04 0.03 0.03 0.02 0.03 0.05 0.07 0.12 0.23 0.32 0.35 0.35 0.33 0.29 0.21 0.14 0.10 0.06 0.04 0.02 0.01 0.01 0.03 0.04 0.05
0.18 0.30 0.21 0.25 0.39 0.42 0.35 0.37 0.39 0.31 0.19 0.30 0.30 0.11 0.03 0.02 0.03 0.03 0.02 0.02 0.02 0.02 0.03 0.04 0.07 0.08 0.07 0.13 0.24 0.28 0.34 0.33 0.23 0.16 0.14 0.12 0.08 0.04 0.03 0.03 0.03 0.02 0.02
0.13 0.24 0.20 0.15 0.20 0.22 0.17 0.18 0.27 0.28 0.23 0.34 0.37 0.25 0.08 0.04 0.02 0.02 0.03 0.02 0.02 0.03 0.04 0.04 0.08 0.13 0.15 0.17 0.17 0.16 0.24 0.29 0.28 0.27 0.26 0.21 0.13 0.08 0.08 0.10 0.08 0.04 0.03
0.04 0.07 0.09 0.11 0.16 0.23 0.22 0.22 0.26 0.28 0.21 0.21 0.28 0.29 0.18 0.06 0.04 0.05 0.07 0.06 0.07 0.11 0.13 0.13 0.16 0.17 0.20 0.24 0.22 0.15 0.17 0.17 0.32 0.42 0.34 0.23 0.11 0.08 0.11 0.17 0.15 0.08 0.09
0.03 0.04 0.05 0.05 0.10 0.17 0.17 0.15 0.16 0.18 0.16 0.12 0.15 0.17 0.20 0.16 0.12 0.07 0.08 0.11 0.13 0.16 0.20 0.21 0.22 0.24 0.24 0.23 0.26 0.28 0.23 0.17 0.22 0.23 0.25 0.27 0.21 0.14 0.11 0.16 0.23 0.20 0.16
0.03 0.04 0.04 0.04 0.06 0.08 0.09 0.08 0.08 0.09 0.08 0.06 0.07 0.10 0.19 0.23 0.24 0.18 0.12 0.11 0.09 0.11 0.16 0.18 0.22 0.25 0.23 0.23 0.27 0.31 0.33 0.28 0.15 0.09 0.19 0.31 0.31 0.25 0.18 0.18 0.24 0.28 0.30
0.04 0.06 0.07 0.07 0.09 0.09 0.09 0.08 0.09 0.07 0.06 0.05 0.05 0.08 0.13 0.20 0.24 0.26 0.21 0.15 0.11 0.11 0.15 0.19 0.28 0.31 0.27 0.25 0.21 0.15 0.13 0.11 0.10 0.11 0.17 0.20 0.19 0.19 0.22 0.29 0.37 0.45 0.51
0.03 0.06 0.11 0.12 0.12 0.11 0.10 0.11 0.11 0.09 0.08 0.07 0.07 0.08 0.11 0.17 0.22 0.22 0.20 0.15 0.12 0.13 0.20 0.23 0.29 0.29 0.24 0.19 0.15 0.07 0.03 0.02 0.03 0.06 0.16 0.28 0.33 0.35 0.34 0.33 0.36 0.43 0.49
0.05 0.08 0.09 0.09 0.09 0.09 0.09 0.10 0.08 0.08 0.11 0.14 0.16 0.15 0.15 0.20 0.27 0.24 0.20 0.17 0.14 0.19 0.30 0.29 0.24 0.19 0.16 0.14 0.12 0.06 0.02 0.00 0.00 0.01 0.02 0.03 0.06 0.10 0.16 0.20 0.25 0.32 0.38
0.07 0.08 0.07 0.07 0.08 0.08 0.08 0.09 0.10 0.12 0.15 0.16 0.20 0.26 0.26 0.27 0.28 0.26 0.21 0.18 0.18 0.20 0.24 0.22 0.17 0.12 0.12 0.10 0.08 0.04 0.01 0.00 0.00 0.00 0.00 0.00 0.00 0.01 0.01 0.02 0.05 0.08 0.11
0.06 0.09 0.12 0.12 0.11 0.10 0.14 0.19 0.18 0.14 0.20 0.26 0.33 0.38 0.36 0.37 0.34 0.27 0.22 0.18 0.12 0.13 0.17 0.13 0.09 0.07 0.06 0.04 0.03 0.01 0.00 0.00 0.00 0.00 0.00 0.00 0.01 0.03 0.03 0.02 0.01 0.02 0.02
0.07 0.11 0.15 0.17 0.18 0.22 0.36 0.48 0.46 0.36 0.39 0.43 0.46 0.51 0.50 0.46 0.39 0.27 0.18 0.13 0.08 0.06 0.09 0.06 0.02 0.02 0.02 0.01 0.01 0.00 0.00 0.00 0.00 0.01 0.01 0.00 0.01 0.02 0.02 0.02 0.01 0.01 0.02
0.04 0.05 0.07 0.11 0.15 0.19 0.29 0.55 0.69 0.68 0.63 0.52 0.49 0.57 0.57 0.47 0.34 0.23 0.17 0.12 0.07 0.04 0.03 0.02 0.01 0.00 0.00 0.00 0.00 0.00 0.00 0.01 0.01 0.02 0.02 0.01 0.01 0.01 0.00 0.01 0.01 0.01 0.01
0.03 0.03 0.05 0.10 0.16 0.17 0.21 0.38 0.57 0.64 0.62 0.54 0.52 0.49 0.43 0.36 0.29 0.20 0.13 0.08 0.05 0.02 0.01 0.00 0.00 0.00 0.00 0.00 0.00 0.00 0.00 0.01 0.01 0.01 0.04 0.04 0.04 0.01 0.00 0.00 0.00 0.01 0.01
0.02 0.04 0.08 0.13 0.15 0.13 0.15 0.27 0.39 0.47 0.47 0.44 0.41 0.34 0.26 0.20 0.19 0.15 0.09 0.05 0.02 0.01 0.00 0.00 0.00 0.00 0.00 0.00 0.00 0.00 0.00 0.00 0.00 0.00 0.03 0.08 0.08 0.03 0.01 0.00 0.00 0.00 0.01
0.00 0.03 0.08 0.11 0.09 0.08 0.16 0.27 0.28 0.25 0.26 0.26 0.24 0.18 0.13 0.09 0.08 0.06 0.04 0.02 0.01 0.01 0.00 0.00 0.00 0.00 0.00 0.00 0.00 0.00 0.00 0.00 0.00 0.00 0.01 0.02 0.02 0.01 0.00 0.00 0.00 0.00 0.01
0.00 0.01 0.02 0.05 0.04 0.05 0.13 0.18 0.15 0.12 0.10 0.09 0.09 0.07 0.05 0.03 0.02 0.01 0.00 0.00 0.00 0.00 0.00 0.00 0.00 0.00 0.00 0.00 0.00 0.00 0.00 0.00 0.00 0.00 0.00 0.00 0.00 0.00 0.00 0.00 0.00 0.00 0.00
0.00 0.00 0.00 0.00 0.01 0.02 0.03 0.05 0.04 0.03 0.02 0.02 0.02 0.02 0.01 0.01 0.00 0.00 0.00 0.00 0.00 0.00 0.00 0.00 0.00 0.00 0.00 0.00 0.00 0.00 0.00 0.00 0.00 0.00 0.00 0.00 0.00 0.00 0.00 0.00 0.00 0.00 0.00
0.00 0.00 0.00 0.00 0.00 0.00 0.00 0.00 0.01 0.01 0.00 0.00 0.00 0.00 0.00 0.00 0.00 0.00 0.00 0.00 0.00 0.00 0.00 0.00 0.00 0.00 0.00 0.00 0.00 0.00 0.00 0.00 0.00 0.00 0.00 0.00 0.00 0.00 0.01 0.01 0.00 0.00 0.00
0.01 0.00 0.00 0.00 0.00 0.00 0.00 0.00 0.00 0.00 0.00 0.00 0.00 0.00 0.00 0.00 0.00 0.00 0.00 0.00 0.00 0.00 0.00 0.00 0.00 0.00 0.00 0.00 0.00 0.00 0.00 0.00 0.00 0.00 0.00 0.00 0.00 0.00 0.00 0.01 0.02 0.01 0.00
0.03 0.01 0.00 0.00 0.00 0.00 0.00 0.00 0.00 0.00 0.00 0.00 0.00 0.00 0.00 0.00 0.00 0.00 0.00 0.00 0.00 0.00 0.00 0.00 0.00 0.00 0.00 0.00 0.00 0.00 0.00 0.00 0.00 0.01 0.00 0.00 0.00 0.00 0.00 0.00 0.01 0.02 0.01